Location: Aalen
(48.8330°N, 10.1000°E)
Time: 18:23:51
(UTC+02:00)

Transit 4A - Pass Details

Date: 05 August 2021
Orbit: 871 x 974 km, 66.8° (Epoch: 16 September)

Event Time Altitude Azimuth Distance (km) Brightness Sun altitude
Rises 10:06:25 0° 317° (NW) 3,482 10.5 38.7°
Reaches altitude 10° 10:09:15 10° 305° (NW) 2,548 9.8 39.1°
Maximum altitude 10:14:02 27° 251° (WSW) 1,664 9.2 39.9°
Drops below altitude 10° 10:18:54 10° 196° (SSW) 2,583 10.4 40.6°
Sets 10:21:48 0° 184° (S) 3,537 11.1 41.0°
